This is the latest recevied weather packets stored in our database for station/object WX5HOT. If no packets are shown the sender has not sent any weather packets the latest 1 day(s).
| Time | Temp. | Humidity | Pressure | Rain* | Wind** | Luminosity | Snow |
|---|---|---|---|---|---|---|---|
| 1778039379 | 21.11° C | 94% | 1058 hPa | 0 mm | 1.34 m/s, 191° | 0 W/m² | - |
| 1778039077 | 21.11° C | 94% | 1058.2 hPa | 0 mm | 2.24 m/s, 188° | 0 W/m² | - |
| 1778038774 | 21.11° C | 94% | 1058.4 hPa | 0 mm | 1.79 m/s, 182° | 0 W/m² | - |
| 1778038472 | 21.11° C | 93% | 1058.3 hPa | 0 mm | 1.79 m/s, 187° | 0 W/m² | - |
| 1778038168 | 21.67° C | 93% | 1058 hPa | 0 mm | 1.79 m/s, 189° | 0 W/m² | - |
| 1778037865 | 21.67° C | 92% | 1058.2 hPa | 0 mm | 1.79 m/s, 174° | 0 W/m² | - |
| 1778037562 | 21.67° C | 92% | 1057.9 hPa | 0 mm | 1.79 m/s, 187° | 0 W/m² | - |
| 1778037259 | 21.67° C | 92% | 1057.9 hPa | 0 mm | 1.79 m/s, 180° | 0 W/m² | - |
| 1778036957 | 21.11° C | 92% | 1057.8 hPa | 0 mm | 1.79 m/s, 184° | 0 W/m² | - |
| 1778036655 | 21.67° C | 92% | 1057.7 hPa | 0 mm | 1.79 m/s, 176° | 0 W/m² | - |
| 1778036351 | 21.11° C | 92% | 1057.7 hPa | 0 mm | 1.79 m/s, 179° | 0 W/m² | - |
| 1778036048 | 21.11° C | 92% | 1057.3 hPa | 0 mm | 2.24 m/s, 182° | 0 W/m² | - |
| 1778035745 | 21.11° C | 92% | 1057.5 hPa | 0 mm | 2.24 m/s, 183° | 0 W/m² | - |
| 1778035442 | 21.11° C | 92% | 1057.6 hPa | 0 mm | 1.34 m/s, 182° | 0 W/m² | - |
| 1778035137 | 21.11° C | 92% | 1057.4 hPa | 0 mm | 2.24 m/s, 185° | 0 W/m² | - |
| 1778034835 | 21.11° C | 92% | 1057.4 hPa | 0 mm | 1.79 m/s, 185° | 0 W/m² | - |
| 1778034531 | 21.11° C | 92% | 1057.6 hPa | 0 mm | 2.24 m/s, 214° | 0 W/m² | - |
| 1778034229 | 21.11° C | 92% | 1057.6 hPa | 0 mm | 1.34 m/s, 179° | 0 W/m² | - |
| 1778033927 | 21.11° C | 93% | 1057.2 hPa | 0 mm | 1.34 m/s, 189° | 0 W/m² | - |
| 1778033624 | 21.11° C | 94% | 1057.3 hPa | 0 mm | 1.34 m/s, 193° | 0 W/m² | - |
| 1778033320 | 21.11° C | 94% | 1057.5 hPa | 0 mm | 1.79 m/s, 215° | 0 W/m² | - |
| 1778033018 | 21.11° C | 95% | 1057.2 hPa | 0 mm | 1.79 m/s, 190° | 0 W/m² | - |
| 1778032716 | 21.11° C | 95% | 1057.3 hPa | 0 mm | 1.79 m/s, 181° | 0 W/m² | - |
| 1778032413 | 21.11° C | 97% | 1057.1 hPa | 0 mm | 1.79 m/s, 190° | 0 W/m² | - |
| 1778032109 | 21.11° C | 99% | 1056.8 hPa | 0 mm | 1.34 m/s, 189° | 0 W/m² | - |
* Rain latest hour (hover to see other rain measurements)
** Current wind speed in m/s (hover to see current wind gust speed)